Regional Weather Roundup
Issued by NWS

Home | Current Version | Previous Version | Text Only | Print | Product List | Glossary Off
Versions: 1 2 3 4 5 6 7 8 9 10 11 12 13 14 15 16 17 18 19 20 21 22 23 24 25 26 27 28 29 30 31 32 33 34 35 36 37 38 39 40 41 42 43 44 45 46 47 48 49 50

573
ASUS45 KABQ 131001
RWRNM
NEW MEXICO REGIONAL WEATHER ROUNDUP
NATIONAL WEATHER SERVICE ALBUQUERQUE NM
300 AM MST SAT FEB 13 2016

NOTE: "FAIR" MEANS FEW OR NO CLOUDS BELOW 12,000 FEET AGL WITH NO
       SIGNIFICANT WEATHER OR OBSTRUCTIONS TO VISION.

      THIS PRODUCT IS RELEASED AS TWO VERSIONS.  ONE VERSION NEAR
      THE TOP OF THE HOUR CONTAINING PRELIMINARY DATA FROM ALBUQUERQUE
      AND OTHER STATIONS.  A FINAL VERSION WITH ADDITIONAL DATA IS
      ISSUED ABOUT 10 MINUTES AFTER THE HOUR.

NMZ501-503-504-510>518-131100-
NORTHWEST PLATEAU/NORTHCENTRAL MOUNTAINS

CITY           SKY/WX    TMP DP  RH WIND       PRES   REMARKS
FARMINGTON     CLOUDY    29  24  82 E8        30.30F WCI  21
SANTA FE       CLOUDY    33  21  61 N10       30.31F WCI  25
TAOS           CLOUDY    27  21  80 N5        30.35F WCI  21

$$
NMZ402-403-502-505>509-131100-
WESTCENTRAL MOUNTAINS/SOUTHWEST MOUNTAINS

CITY           SKY/WX    TMP DP  RH WIND       PRES   REMARKS
GALLUP         CLEAR     23  18  81 CALM      30.33F
SILVER CITY      N/A     32  14  47 N8        30.31S WCI  25

$$
NMZ407-409-411-412-131100-
SOUTHERN DESERTS

CITY           SKY/WX    TMP DP  RH WIND       PRES   REMARKS
DEMING         MOCLDY    35  13  40 NW8       30.26S WCI  29
HOLLOMAN AFB   CLOUDY    38   7  27 NW5       30.24F WCI  35
ALAMOGORDO     CLOUDY    37   7  28 NE5       30.26S WCI  34
T OR C         PTCLDY    44  10  25 NW9       30.26F

$$
NMZ519>523-131100-
CENTRAL VALLEYS/CENTRAL HIGHLANDS

CITY           SKY/WX    TMP DP  RH WIND       PRES   REMARKS
ALBUQUERQUE    CLOUDY    42  21  43 N10       30.29F
DOUBLE EAGLE   CLOUDY    32  20  62 NW6       30.31F WCI  26
CLINES CORNERS CLOUDY    41  17  38 W5        30.32F
BELEN          FAIR      29  14  54 CALM      30.30F
SOCORRO        NOT AVBL

$$
NMZ524>526-539-540-131100-
SOUTHCENTRAL MOUNTAINS

CITY           SKY/WX    TMP DP  RH WIND       PRES   REMARKS
RUIDOSO          N/A     43  14  31 CALM      30.37F

$$
NMZ527>531-131100-
NORTHEAST HIGHLANDS/NORTHEAST PLAINS

CITY           SKY/WX    TMP DP  RH WIND       PRES   REMARKS
LAS VEGAS      CLOUDY    37  21  52 S14       30.31F WCI  28
RATON          CLOUDY    29  20  69 CALM      30.28F
CLAYTON        CLOUDY    36  26  67 SW16      30.25F WCI  26

$$
NMZ532>537-131100-
EASTCENTRAL PLAINS

CITY           SKY/WX    TMP DP  RH WIND       PRES   REMARKS
TUCUMCARI      CLOUDY    42  26  53 W8        30.28F
CANNON AFB     CLEAR     36  26  68 SE2       30.31F
CLOVIS AIRPORT CLOUDY    34  23  64 SW6       30.32F WCI  29

$$
NMZ028-029-538-131100-
SOUTHEAST PLAINS

CITY           SKY/WX    TMP DP  RH WIND       PRES   REMARKS
ROSWELL        CLOUDY    37  23  56 SW5       30.28F WCI  33
ARTESIA        CLOUDY    32  25  74 W3        30.29S
CARLSBAD       CLOUDY    36  24  62 NW3       30.27F
HOBBS          CLEAR     37  28  70 E7        30.30F WCI  32


$$




USA.gov is the U.S. government's official web portal to all federal, state and local government web resources and services.